HORS 3 (RS81S)

Last updated on Wed Sep 09 2026 00:03:15 GMT+0000 (Coordinated Universal Time)

1 61753U 24199U 26251.59063776 .00053173 00000+0 63162-3 0 9995 2 61753 97.2824 129.3869 0004208 1.2635 358.8632 15.61004635150546
UTC large
Height (km)
Speed (km/s)
/
Latitude / Longitude
Inclination (degrees)
Orbital Period (minutes)
Azimuth
Elevation
Range (km)
Doppler Factor

Next 0 passes for location: London (51.5072 / 0.1276)

No passes found over London.
HORS 3 (RS81S)